RH
34 36 35 33 35 38 40 39 41 44 46 47 47 48 48 47 45 44 45 46 44 41 42 41 40 40 38 38 41 39 37 37 37 36 35 35 35 33 31 31 31 30 29 29 29 29 31 31 32 32 31 30 30 30 30 29 28 28 29 29 30 35 39 39 40 41 42 44 45 45 46 46 46 45 45 45 45 46 46 46 47 47 48 49 51 51
36 38 36 35 39 42 43 43 44 46 47 46 46 47 48 49 47 44 45 46 44 42 44 43 41 41 39 40 43 41 40 41 39 38 37 37 36 34 33 32 32 31 31 31 31 32 32 32 33 32 31 30 29 29 29 28 29 29 28 28 30 34 36 36 37 39 39 41 43 44 45 46 46 46 47 46 46 47 47 47 47 46 47 47 49 50
39 39 38 39 44 46 47 47 47 48 47 47 48 47 49 49 49 48 48 48 46 43 45 45 41 40 40 43 46 44 43 43 41 39 38 37 37 36 34 34 33 33 33 33 32 33 32 32 32 31 30 28 27 27 27 27 28 27 26 27 29 29 30 31 32 32 32 33 35 37 38 40 40 41 43 44 44 45 45 45 43 43 44 44 44 46
43 42 41 43 47 48 50 51 51 50 50 50 50 50 50 50 50 52 50 49 47 45 44 44 42 40 40 43 46 44 43 43 41 40 39 38 38 37 36 34 34 33 33 33 33 33 32 31 31 29 28 27 26 26 26 27 27 26 26 27 27 28 29 30 29 29 29 29 30 31 32 33 33 35 37 38 39 39 39 39 39 40 41 41 42 43
46 46 45 47 49 50 52 54 54 52 52 53 53 52 50 50 51 52 51 50 49 49 47 43 43 44 41 41 43 43 43 43 42 41 41 40 39 37 36 35 34 34 33 34 33 33 32 31 31 29 29 28 28 27 27 28 28 27 27 27 27 28 30 30 30 29 29 29 29 29 30 31 32 34 36 37 37 37 37 38 38 39 40 42 42 43
51 49 48 50 53 54 54 56 57 55 54 55 56 53 51 51 52 52 51 49 50 51 48 43 45 48 46 43 43 44 45 45 44 43 42 41 40 38 37 35 34 34 33 33 33 33 33 33 32 32 30 29 28 28 28 28 29 28 27 27 26 28 31 31 31 30 30 29 30 30 31 32 33 34 36 38 39 39 39 39 39 39 40 42 44 45
57 54 53 56 58 58 58 58 59 58 57 57 56 55 53 52 52 53 51 50 51 51 47 44 45 47 47 45 45 46 47 47 46 45 44 42 41 39 37 36 35 34 34 34 33 34 35 35 34 33 31 30 29 29 29 29 29 28 27 26 26 27 30 31 31 31 30 30 30 31 32 33 33 34 36 39 42 42 42 41 41 40 41 42 44 46
59 58 58 59 60 60 59 59 60 60 60 60 59 59 57 54 54 55 52 51 53 51 50 50 46 45 45 44 46 47 48 49 48 47 46 43 42 40 39 37 36 35 35 35 35 36 36 36 35 33 32 31 30 30 30 29 29 29 29 28 27 28 29 31 31 31 30 30 31 31 32 33 34 34 36 38 41 44 45 44 42 41 42 43 44 46
59 60 60 60 59 60 58 60 62 60 60 62 62 62 60 57 58 58 54 52 52 50 51 52 48 46 47 45 45 47 46 47 49 48 47 44 42 40 39 38 37 36 37 36 36 36 37 37 35 34 33 31 31 31 30 30 30 31 32 32 31 31 30 30 29 30 31 31 31 32 33 34 34 35 36 38 40 42 46 48 47 45 45 45 45 47
61 61 62 62 60 59 60 63 64 60 59 62 63 64 61 60 61 58 56 54 53 52 52 51 48 47 51 48 44 44 43 43 46 46 45 43 41 39 38 38 37 38 37 37 37 37 38 37 36 35 33 32 32 32 32 32 32 33 36 37 36 35 34 32 30 30 31 32 33 33 34 34 35 36 37 38 39 40 43 47 50 51 50 49 48 47
63 61 62 63 62 60 62 63 62 61 61 61 61 60 58 60 61 60 61 56 54 57 54 51 50 48 51 50 43 43 44 43 45 47 46 44 41 39 39 39 39 39 38 38 38 38 38 38 37 36 35 34 35 35 35 35 34 34 36 39 41 40 38 36 33 31 32 34 35 36 36 37 37 38 39 38 38 39 40 43 47 52 53 52 50 48
64 63 63 62 61 62 63 60 58 60 61 61 62 60 58 60 60 61 64 60 61 62 56 54 54 51 52 50 43 45 48 47 47 48 47 45 43 41 40 41 40 40 39 38 39 39 39 39 38 38 37 37 37 37 37 37 37 36 36 39 42 43 42 39 37 34 34 36 37 38 38 39 39 39 39 39 38 38 38 39 42 46 50 52 52 50
64 65 65 63 61 61 62 60 58 58 59 60 62 62 62 63 63 65 67 65 66 63 57 57 56 51 51 47 43 45 49 51 50 48 47 46 45 44 43 43 42 41 40 39 40 40 40 40 40 40 40 40 40 40 41 41 39 36 37 38 40 43 43 41 39 38 38 39 39 40 40 40 40 40 40 40 39 38 38 39 39 42 46 49 51 51
68 67 64 63 60 59 59 59 59 58 58 59 59 61 63 66 72 76 73 69 65 58 55 59 57 53 49 45 47 50 51 52 51 49 49 46 45 45 45 44 43 43 42 41 42 43 42 42 42 41 41 43 44 44 42 40 36 34 36 38 40 42 43 42 41 41 41 41 41 41 41 41 41 40 40 40 39 38 38 38 38 38 40 43 45 48
72 68 62 60 58 57 56 56 60 61 58 59 61 62 62 65 71 72 69 68 64 57 55 56 55 53 47 45 52 53 51 52 51 51 52 49 47 45 44 44 43 43 43 43 44 44 44 43 43 43 44 45 45 43 40 37 34 33 35 39 41 43 43 43 43 43 44 44 43 42 41 40 40 39 38 38 37 37 36 36 35 35 35 35 36 37
70 66 61 59 56 55 55 55 59 60 58 61 64 63 62 63 65 64 65 65 62 61 61 56 52 51 48 50 55 54 52 53 53 53 54 52 50 47 45 45 44 44 44 44 44 43 43 45 45 45 46 44 42 40 37 35 33 35 37 40 43 44 44 45 45 46 46 45 44 42 40 39 38 38 38 37 35 34 34 33 32 30 29 28 27 27
69 67 63 59 55 56 57 56 58 59 60 62 63 64 65 66 66 66 66 64 64 64 60 54 51 49 48 50 54 56 56 57 57 57 56 55 52 49 47 46 45 45 44 44 44 44 45 47 47 47 47 45 41 39 37 36 36 38 39 41 43 44 45 46 47 47 46 44 42 40 39 37 36 36 35 35 34 33 32 30 29 27 26 24 24 24
68 67 65 61 58 58 58 57 59 60 62 65 65 65 66 66 67 68 67 68 72 70 60 53 50 48 48 49 53 56 57 59 60 60 59 57 55 52 49 47 46 46 45 46 46 47 48 49 50 50 49 45 42 39 38 38 39 41 42 43 45 46 47 47 46 44 41 39 37 34 34 34 33 33 32 32 31 31 30 29 27 25 25 24 25 25
66 66 66 65 62 61 60 60 61 61 63 66 67 65 66 67 68 68 67 67 70 72 67 58 52 49 49 49 52 55 57 60 62 62 62 60 58 55 51 49 49 48 49 50 51 52 52 52 51 49 46 43 41 41 41 42 43 44 44 44 44 44 42 40 37 35 33 32 31 31 30 30 30 29 29 28 28 30 32 32 31 30 30 30 30 29
67 66 67 66 63 62 61 61 63 64 64 67 68 67 67 68 68 67 67 64 64 70 70 63 54 48 49 51 53 53 55 59 63 63 63 61 59 56 53 52 52 51 51 52 52 51 49 47 45 43 41 40 40 41 42 43 44 45 44 43 41 39 36 33 31 31 31 30 30 29 28 28 30 30 32 33 34 35 36 35 34 33 30 26 24 23
69 67 68 68 65 64 63 63 65 66 66 68 70 69 67 68 68 68 68 65 68 75 76 71 59 47 50 57 55 53 56 59 62 63 62 61 60 58 57 55 51 47 45 45 44 43 43 43 42 40 40 42 44 46 47 48 47 45 43 42 40 38 35 33 32 32 31 29 27 28 29 31 34 34 34 33 30 28 27 25 24 23 20 19 18 18
71 72 74 73 69 67 68 69 69 69 69 68 69 69 68 70 72 75 75 71 72 76 75 75 67 50 51 61 59 59 63 62 62 64 64 65 64 62 61 56 50 44 42 42 43 44 45 44 42 40 40 43 46 48 48 46 44 42 41 39 37 36 34 32 30 28 26 24 23 24 26 26 26 24 22 20 19 18 18 19 19 19 20 21 21 21
74 76 76 74 73 73 73 73 73 76 76 74 74 73 71 71 71 74 76 73 75 76 73 79 78 59 55 65 67 69 72 68 65 65 66 67 66 64 61 54 49 46 46 47 48 48 47 44 41 39 38 40 42 45 45 44 43 42 38 34 30 27 25 22 20 19 17 17 17 17 17 16 16 16 16 17 18 20 21 22 23 24 25 26 26 26
74 75 74 75 78 79 78 77 78 81 80 77 75 75 74 73 72 74 76 76 79 77 75 86 87 70 66 73 74 74 75 72 69 67 67 67 64 60 56 52 50 50 51 52 50 49 47 43 40 38 37 40 45 47 46 43 40 36 29 24 21 19 19 17 16 16 15 15 16 16 16 16 18 19 20 22 24 26 27 29 29 29 29 29 29 28
75 77 78 83 87 87 86 85 81 79 78 77 77 78 77 76 77 79 79 82 85 77 78 92 91 77 76 78 74 74 75 73 72 70 66 62 57 55 54 53 53 53 53 53 51 48 46 43 40 38 39 45 48 45 39 34 31 28 25 23 23 23 22 21 19 18 18 18 18 18 19 21 23 25 27 29 31 33 34 34 34 33 32 31 30 29
79 82 81 82 86 86 85 83 79 77 80 81 79 78 76 75 77 80 82 87 90 85 85 91 87 79 78 73 70 73 73 70 70 68 61 57 56 55 55 55 55 55 55 54 52 49 46 42 39 37 39 43 43 39 37 36 35 34 32 31 30 28 26 23 22 22 21 20 20 21 24 26 28 30 32 34 36 37 37 37 36 34 33 32 31 30
85 87 82 79 79 78 79 80 79 80 83 83 79 76 77 78 78 81 86 88 89 90 89 83 80 83 80 71 71 75 71 67 67 65 61 58 57 56 55 56 57 56 55 54 52 48 43 38 33 30 30 33 35 38 41 43 43 42 40 37 33 29 26 24 24 23 23 23 24 26 28 31 33 35 37 38 39 39 38 37 35 34 34 33 31 29
89 88 84 85 84 81 83 86 85 85 86 86 85 82 80 82 82 84 87 87 87 92 90 80 79 83 74 68 73 74 68 66 65 61 58 56 54 54 55 57 57 56 55 52 48 41 35 30 25 23 25 30 36 41 45 47 48 48 44 37 32 28 25 25 25 25 25 27 28 31 33 36 38 39 39 39 39 38 37 36 35 35 34 33 30 28
94 91 87 90 91 87 89 92 91 91 91 90 91 87 80 80 83 86 87 86 86 89 86 80 81 77 63 62 71 70 64 62 61 59 57 53 52 52 54 55 53 50 46 41 35 30 26 23 22 22 27 35 41 44 47 48 50 49 43 34 29 27 26 26 26 26 28 30 32 35 38 40 40 40 39 38 36 35 35 34 34 34 32 31 28 27
96 95 91 92 94 92 91 92 91 91 90 88 85 79 75 78 83 86 85 82 83 85 81 78 79 69 57 59 66 65 61 61 63 63 59 55 54 53 50 47 41 35 31 26 23 22 22 22 23 24 30 38 44 46 48 50 50 47 40 32 28 27 27 27 27 29 32 35 38 40 41 40 39 37 35 34 33 33 33 33 32 31 30 28 27 26
95 95 92 93 96 94 89 91 92 90 89 89 80 72 75 83 86 85 82 80 82 82 75 73 73 64 53 54 57 58 59 61 61 58 53 49 47 43 37 32 27 24 22 21 22 23 24 24 25 26 31 40 46 49 50 50 48 44 36 30 28 27 28 29 30 33 36 39 40 40 38 36 34 33 33 32 33 32 32 32 31 29 28 27 27 27
96 96 94 94 98 94 86 89 92 88 91 91 78 71 79 84 80 80 81 80 78 74 71 72 70 59 51 53 56 57 58 57 52 44 38 34 30 27 24 22 22 22 22 23 24 25 25 25 26 28 33 41 46 48 48 46 44 39 33 29 29 29 30 32 34 37 39 39 39 37 36 34 32 33 34 34 33 32 30 30 29 28 28 28 28 27
93 93 92 93 95 92 86 87 88 89 96 90 71 66 74 74 71 75 77 71 65 65 69 70 63 56 56 59 58 55 51 45 38 31 26 23 22 22 22 22 23 24 24 24 23 23 23 24 26 28 32 36 40 41 42 42 40 36 32 32 33 33 34 35 36 38 39 39 38 36 35 34 34 35 35 34 32 30 30 30 29 30 30 30 29 27
94 93 94 94 96 96 90 87 90 96 95 78 61 61 65 64 65 69 68 62 60 62 65 63 59 58 59 57 50 42 37 32 27 23 22 22 22 23 23 24 26 26 25 24 23 23 23 24 27 30 32 34 37 39 40 40 38 36 34 34 34 35 36 38 39 40 40 40 38 37 37 37 37 36 34 32 31 30 31 31 31 32 32 31 29 26
95 95 96 95 97 98 94 93 98 97 82 65 60 62 61 59 62 64 61 59 59 60 60 59 58 55 50 44 38 32 28 25 24 23 23 24 24 24 25 26 27 27 25 25 24 24 25 26 28 31 33 34 36 38 39 39 38 35 34 33 34 36 38 40 41 41 41 40 39 39 39 38 37 34 32 31 32 33 33 34 34 35 34 31 29 26
92 93 94 96 98 98 97 98 96 85 71 66 67 64 58 58 61 60 59 56 53 55 57 58 55 48 41 36 31 28 27 26 25 25 25 25 26 26 27 28 28 28 26 26 25 26 27 28 28 30 31 33 35 37 38 37 35 33 33 34 35 37 38 38 38 39 39 39 39 39 38 36 34 33 33 34 35 36 36 36 37 36 34 32 29 29
91 90 91 95 97 96 95 94 89 82 77 74 71 63 57 57 60 61 62 58 50 48 51 53 50 41 35 32 29 28 28 27 27 26 26 27 28 28 29 29 28 28 27 26 27 27 27 28 29 30 31 32 34 35 33 32 31 31 32 33 34 35 36 36 38 38 39 39 39 38 36 34 34 34 36 38 38 39 39 39 39 37 34 33 32 32
90 90 90 95 96 93 93 92 89 88 83 72 66 61 56 56 58 59 61 57 48 43 44 45 43 37 33 32 30 29 29 30 31 29 27 28 29 28 29 28 27 27 27 27 27 27 28 29 29 30 30 31 31 30 29 29 30 31 32 33 34 36 37 39 39 39 39 38 37 36 35 35 37 38 40 41 41 41 41 41 40 38 35 35 35 35
89 90 91 96 96 91 91 91 87 85 78 67 61 59 57 56 56 58 64 61 48 40 39 38 36 34 32 31 31 31 33 36 35 30 27 28 28 27 27 27 26 27 27 27 27 28 29 29 28 29 29 28 28 28 29 30 31 32 34 36 38 39 40 40 40 39 39 38 38 38 38 39 41 42 43 43 42 43 43 43 41 39 38 38 39 38
90 91 91 93 92 88 88 89 85 80 74 64 60 60 57 55 55 61 69 63 46 36 33 32 32 31 30 31 33 34 36 37 34 29 26 26 27 26 26 26 26 26 27 27 28 28 28 28 28 28 28 28 29 30 31 33 35 37 39 40 41 41 40 41 40 40 41 42 42 42 43 44 45 46 46 45 44 44 44 43 41 41 42 43 42 39
88 88 88 87 86 85 87 88 86 80 70 62 62 61 56 56 59 60 56 47 38 34 31 28 28 27 28 31 34 34 33 31 28 26 25 25 25 24 25 26 26 27 28 28 29 29 28 28 28 28 28 29 31 32 34 37 38 40 41 41 41 42 42 42 42 44 46 48 48 48 47 48 49 49 48 48 47 47 46 44 43 44 46 45 42 37
82 84 85 85 85 85 85 85 87 80 63 54 60 60 51 53 58 51 39 34 33 33 31 29 27 27 29 31 31 30 29 26 25 26 26 25 24 24 25 26 27 28 29 29 30 29 28 28 29 30 30 32 34 36 38 40 40 40 42 42 43 44 45 46 48 50 52 54 53 52 51 51 51 51 52 52 51 50 47 46 47 48 48 45 39 35
74 81 84 81 79 83 86 87 87 75 53 42 49 51 44 44 44 37 32 31 31 29 30 30 30 30 31 31 30 29 28 26 26 26 25 25 26 27 28 29 29 30 29 29 29 29 29 30 31 32 34 35 36 38 39 40 41 42 43 45 46 48 49 51 54 56 58 58 58 56 55 55 55 55 56 55 53 50 48 49 51 50 47 41 36 34
68 75 77 71 69 76 82 78 67 55 41 33 36 38 36 36 34 29 29 31 30 30 32 32 32 32 31 31 30 29 28 27 27 26 26 27 28 29 31 31 31 30 29 29 30 31 32 33 35 36 37 37 37 39 40 41 43 44 46 49 52 53 55 56 58 60 61 62 62 61 61 61 60 59 57 55 52 49 49 50 51 48 42 37 35 35
61 63 61 58 56 57 57 52 43 37 34 31 30 32 33 33 32 31 31 32 33 34 34 33 32 32 30 30 30 28 28 28 28 28 29 29 30 31 31 32 31 31 31 32 33 34 35 36 37 37 37 37 39 40 42 44 46 48 51 55 56 56 58 60 61 63 64 65 66 65 65 63 61 58 55 52 50 49 49 50 49 44 38 36 37 38
48 48 44 43 43 40 38 37 35 33 34 32 31 33 32 32 33 35 35 35 36 37 36 34 32 31 30 30 29 28 29 29 29 29 30 29 30 30 31 32 34 34 34 34 35 36 37 37 38 38 39 41 43 44 46 49 52 54 57 58 58 59 61 63 64 65 66 66 66 65 63 61 58 55 52 50 49 49 49 49 46 41 37 37 39 41
37 38 37 37 38 35 34 34 34 33 34 33 32 33 33 33 36 38 39 39 38 37 36 34 32 32 31 30 30 30 29 29 29 29 29 29 29 29 30 33 35 35 35 35 35 36 38 38 40 42 43 45 47 50 53 56 58 59 58 57 57 59 60 60 61 61 62 61 61 60 59 57 55 53 52 51 50 50 49 47 44 39 37 38 40 42
35 36 38 38 36 34 34 34 34 35 35 34 34 35 35 37 39 40 41 41 38 37 36 35 36 36 34 32 32 30 29 28 28 28 29 30 29 29 30 32 33 33 34 35 37 39 40 42 43 45 46 48 52 56 59 60 60 59 55 53 54 54 53 53 53 54 55 56 56 57 56 55 55 54 52 51 50 49 48 46 43 39 38 40 42 43
35 36 38 37 36 35 35 36 36 36 37 36 36 37 37 39 42 44 44 41 39 38 39 38 38 38 35 33 31 29 28 29 30 31 32 31 30 29 29 29 31 32 33 35 38 41 42 44 46 48 49 51 55 58 60 59 58 54 49 48 48 48 48 48 48 50 52 54 55 57 57 57 56 54 52 50 48 47 47 47 45 41 40 41 44 46
35 35 35 36 36 35 34 36 38 38 38 37 37 39 40 42 45 48 46 44 43 43 42 40 38 36 34 33 32 31 31 31 32 33 32 30 28 27 27 28 30 31 33 36 38 41 43 45 48 49 50 52 55 56 56 55 52 48 45 44 44 45 45 45 46 48 51 53 56 59 60 60 58 55 51 48 45 45 48 51 49 43 40 43 47 49
32 31 31 32 34 33 33 35 37 38 37 36 37 40 43 46 50 51 50 49 49 48 45 42 38 35 35 35 35 35 34 33 33 32 30 28 27 27 28 29 30 30 32 35 37 39 41 42 45 46 48 50 51 51 51 50 49 46 43 42 42 42 43 43 45 48 51 53 55 58 59 59 57 54 50 46 44 45 49 52 51 47 45 48 51 52